Regional Weather Roundup
Issued by NWS Newport/Morehead, NC

Current Version | Previous Version | Graphics & Text | Print | Product List | Glossary On
Versions: 1 2 3 4 5 6 7 8 9 10 11 12 13 14 15 16 17 18 19 20 21 22 23 24 25 26 27 28 29 30 31 32 33 34 35 36 37 38 39 40 41 42 43 44 45 46 47 48 49 50
000 ASUS42 KMHX 050113 RWRMHX WEATHER ROUNDUP FOR EASTERN NORTH CAROLINA NATIONAL WEATHER SERVICE NEWPORT/MOREHEAD CITY NC 900 PM EDT TUE AUG 04 2015 NOTE: "FAIR" INDICATES FEW OR NO CLOUDS BELOW 12,000 FEET WITH NO SIGNIFICANT WEATHER AND/OR OBSTRUCTIONS TO VISIBILITY NCZ015>017-031-032-045>047-102-103-050200- NORTH COAST CITY SKY/WX TMP DP RH WIND PRES REMARKS EDENTON N/A 81 72 73 S13G18 29.95S ELIZABETH CITY PTCLDY 80 72 76 S9 29.95S KITTY HAWK MOCLDY 79 73 83 S6 29.96S MANTEO MOCLDY 79 75 86 S18 29.97S $$ NCZ045>047-081-094-103-104-050200- CENTRAL COAST CITY SKY/WX TMP DP RH WIND PRES REMARKS FRISCO MOCLDY 78 75 90 S12 29.99S SWANQUARTER N/A 81 N/A N/A S12G17 29.91S $$ NCZ095-097-098-100-101-050200- SOUTHERN COAST CITY SKY/WX TMP DP RH WIND PRES REMARKS BEAUFORT LGT RAIN 80 78 94 SW14G22 29.95S CEDAR ISLAND N/A 79 N/A N/A S13 30.00S JACKSONVILLE MOCLDY 79 75 87 CALM 29.93S PINEY ISLAND MOCLDY N/A N/A N/A S8 29.95S WILMINGTON PTCLDY 80 77 90 SW6 29.94R $$ NCZ011>013-027>030-043-044-078>080-089-090>093-098-050200- COASTAL PLAIN CITY SKY/WX TMP DP RH WIND PRES REMARKS AHOSKIE CLEAR N/A N/A N/A SE5 29.93S CLINTON CLEAR 79 75 87 CALM 29.95R ELIZABETHTOWN CLEAR 80 75 84 CALM 29.95R GOLDSBORO CLEAR 80 73 80 SE6 29.92S GREENVILLE PTCLDY 81 73 78 S6 29.96S HAVELOCK CLOUDY 80 76 87 SE5 29.95S KENANSVILLE CLEAR 77 73 87 CALM 29.95S KINSTON PTCLDY 79 72 78 SE5 29.95S NEW BERN MOCLDY 79 74 84 CALM 29.96R RICHLANDS PTCLDY 77 72 83 CALM 29.94S ROCKY MOUNT CLEAR 82 72 71 SE3 29.93S WASHINGTON MOCLDY 79 73 80 S5 29.95S WHITEVILLE CLEAR 78 76 94 CALM 29.94R $$ AMZ130-135-150-152-154-156-158-170-250-252-270-ANZ085-086-088-633-658-670-050200- MARINE OBSERVATIONS STATION/POSITION TIME TEMP WIND PRES WAVE SWELL AIR SEA DIR/SP/G HT/PER HT/PER (UTC) (F) (DEG/KT/KT) (MB) (FT/S) (FT/S) CHESAPEAKE LIGHT 0000 80 190/ 22/ 23 1013.5 64 E VA BEACH 0050 81 81 200/ 21/ 25 1013.5 4/ 5 2/ 7 DUCK 0000 81 63 180/ 16/ 20 1013.4 2 E DUCK 0011 64 N/A 2/11 OREGON INLET 0000 79 83 180/ 19/ 22 1015.1 13E OREGON INLT 0100 80 N/A 4/ 4 HATTERAS CG 0000 78 79 140/ 9/ 12 1015.1 DIAMOND BUOY 0050 79 84 150/ 17/ 23 1015.6 5/ 7 2/11 CAPE LOOKOUT 0100 81 200/ 17/ 22 1014.1 BEAUFORT LAB 0000 81 80 200/ 14/ 19 1013.2 30 SE NEW RVR IN NOT AVBL 27 SE WRIGHTSVLE 0000 78 82 230/ 17/ 21 N/A 5 SE WRIGHTSVLE NOT AVBL 225 S CAPE HAT 0050 82 81 200/ 19/ 21 1018.5 6/ 7 2/11 41 SE CHARLESTON 0050 82 83 220/ 16/ 17 1014.4 4/ 6 2/11 $$

USA.gov is the U.S. government's official web portal to all federal, state and local government web resources and services.